Location: Handeloh
(53.2500°N, 9.8330°E)
Time: 23:29:16
(UTC+01:00)

S-56A Canister/Altair - Pass Details

Date: 26 November 2019
Orbit: 633 x 2499 km, 38.9° (Epoch: 04 December)

Event Time Altitude Azimuth Distance (km) Brightness Sun altitude
Rises 18:43:18 0° 262° (W) 5,252 13.3 -21.9°
Reaches altitude 10° 18:47:50 10° 252° (WSW) 3,919 12.2 -22.6°
Maximum altitude 18:55:16 25° 203° (SSW) 2,334 10.2 -23.7°
Enters shadow 19:00:09 13° 154° (SSE) 2,692 10.1 -24.4°
Drops below altitude 10° 19:00:47 10° 150° (SSE) 2,827 - -24.5°
Sets 19:03:29 0° 136° (SE) 3,552 - -24.9°
